Mohammed VI-A

operational
NORAD ID: 43005 Int'l Des: 2017-070 Owner: RMAF Country: MA
LEOCIRCULARRETROGRADESSO

Mohammed VI-Aについて

説明を読み込み中...

リアルタイム位置

3D地球を読み込み中...

次回通過

高度履歴

Altitude vs Time

uPlot chart will show altitude changes over time

軌道要素

1 43005U 17070A 26063.21075572 .00000497 00000-0 77574-4 0 9997
2 43005 97.9449 137.0369 0001356 98.1652 261.9711 14.77111386448485
Epoch: Mar 4, 2026 • Age: 19 hours

現在のステータス

高度 640.5 km
速度 7.54 km/s
衛星直下点 9.43°N, 126.12°W
打ち上げ日 Nov 8, 2017
運用期間 8.3 years
タイプ other

技術仕様

分類 Payload
質量 1110.00 kg
乾燥質量 900.00 kg
総質量 1110.00 kg
長さ 4.00 m
直径 2.00 m
スパン 8.00 m
形状 Hex-cyl+3 panels
製造者 ADST
バスタイプ Astrosat-1000
フェーズステータス In Orbit
所有者/国 RMAF/MA

大規模コンステレーション

Loading constellations...